GW4049 Weather Reports


time (UTC)temp
C
wind
direction
speed
KPH
gust
KPH
rain 1hr
cm
rain 24hr
cm
rain mn
cm
humidity
%
barometer
mb
20260504021637 7 271 9.7 12.9 0.00 0.00 0.00 41 1021.8
20260504021133 7 290 4.8 12.9 0.00 0.00 0.00 43 1021.5
20260504020630 7 291 3.2 12.9 0.00 0.00 0.00 44 1021.4
20260504020126 7 263 4.8 11.3 0.00 0.00 0.00 44 1021.6
20260504015623 8 230 6.4 20.9 0.00 0.00 0.00 41 1021.5
20260504015119 8 241 3.2 6.4 0.00 0.00 0.00 40 1021.6
20260504014615 8 298 1.6 9.7 0.00 0.00 0.00 39 1021.5
20260504014113 8 267 4.8 14.5 0.00 0.00 0.00 39 1021.8
20260504013610 8 263 3.2 11.3 0.00 0.00 0.00 39 1021.8
20260504013107 9 242 6.4 14.5 0.00 0.00 0.00 38 1021.6
20260504012604 9 304 6.4 12.9 0.00 0.00 0.00 36 1021.5
20260504012102 10 330 3.2 4.8 0.00 0.00 0.00 36 1021.6
20260504011559 10 260 0.0 3.2 0.00 0.00 0.00 37 1021.6
20260504011055 10 262 0.0 3.2 0.00 0.00 0.00 35 1021.6
20260504010550 10 244 1.6 6.4 0.00 0.00 0.00 35 1021.5
20260504010047 10 280 1.6 9.7 0.00 0.00 0.00 34 1021.4
20260504005543 10 256 11.3 14.5 0.00 0.00 0.00 34 1021.5
20260504005041 10 229 3.2 6.4 0.00 0.00 0.00 33 1021.5
20260504004539 10 278 0.0 4.8 0.00 0.00 0.00 32 1021.4
20260504004036 11 321 9.7 11.3 0.00 0.00 0.00 30 1021.4
20260504003532 11 323 4.8 6.4 0.00 0.00 0.00 32 1021.2
20260504003029 11 289 4.8 9.7 0.00 0.00 0.00 30 1021.4
20260504002525 11 312 11.3 25.7 0.00 0.00 0.00 30 1021.4
20260504002023 11 283 19.3 24.1 0.00 0.00 0.00 30 1021.5
20260504001521 11 235 9.7 20.9 0.00 0.00 0.00 30 1021.2
20260504001016 11 286 3.2 14.5 0.00 0.00 0.00 30 1021.1
20260504000514 11 291 6.4 9.7 0.00 0.00 0.00 29 1021.2
20260504000011 11 316 3.2 4.8 0.00 0.00 0.00 31 1021.1
20260503235509 11 295 4.8 20.9 0.00 0.00 0.00 32 1021.4
20260503235006 11 331 12.9 16.1 0.00 0.00 0.00 32 1021.4
20260503234503 11 279 12.9 17.7 0.00 0.00 0.00 31 1021.2
20260503234002 11 331 9.7 16.1 0.00 0.00 0.00 33 1021.2
20260503233457 11 332 14.5 17.7 0.00 0.00 0.00 32 1021.6
20260503232954 11 283 11.3 24.1 0.00 0.00 0.00 33 1021.6
20260503232451 12 100 11.3 27.4 0.00 0.00 0.00 31 1021.5
20260503231949 12 327 14.5 16.1 0.00 0.00 0.00 26 1021.5
20260503231446 12 331 6.4 16.1 0.00 0.00 0.00 28 1021.5
20260503230942 12 267 6.4 17.7 0.00 0.00 0.00 28 1021.6
20260503230439 13 273 4.8 6.4 0.00 0.00 0.00 27 1021.5
20260503225937 12 327 9.7 12.9 0.00 0.00 0.00 27 1021.5
20260503225433 12 282 8.0 9.7 0.00 0.00 0.00 27 1021.5
20260503224929 12 276 14.5 20.9 0.00 0.00 0.00 27 1021.5
20260503224426 13 257 11.3 22.5 0.00 0.00 0.00 27 1021.4
20260503223924 12 328 6.4 12.9 0.00 0.00 0.00 29 1021.6
20260503223422 12 292 14.5 25.7 0.00 0.00 0.00 28 1021.6
20260503222917 11 321 4.8 11.3 0.00 0.00 0.00 29 1021.6
20260503222416 12 264 4.8 12.9 0.00 0.00 0.00 29 1021.6
20260503221914 11 221 4.8 11.3 0.00 0.00 0.00 29 1021.9
20260503221412 11 237 12.9 17.7 0.00 0.00 0.00 27 1022.0
20260503220908 11 279 6.4 12.9 0.00 0.00 0.00 31 1022.1
20260503220404 11 243 1.6 12.9 0.00 0.00 0.00 29 1022.3
20260503215901 11 290 9.7 12.9 0.00 0.00 0.00 28 1022.3
20260503215358 11 270 4.8 14.5 0.00 0.00 0.00 28 1022.4
20260503214856 11 260 4.8 14.5 0.00 0.00 0.00 29 1022.1
20260503214353 11 252 8.0 9.7 0.00 0.00 0.00 29 1022.3
20260503213850 11 268 0.0 3.2 0.00 0.00 0.00 29 1022.4
20260503213348 11 235 4.8 12.9 0.00 0.00 0.00 29 1022.4
20260503212845 12 269 0.0 1.6 0.00 0.00 0.00 28 1022.8
20260503212343 11 296 4.8 11.3 0.00 0.00 0.00 28 1022.7
20260503211839 12 216 8.0 14.5 0.00 0.00 0.00 29 1022.7
20260503211336 12 326 4.8 11.3 0.00 0.00 0.00 27 1022.5
20260503210831 12 94 6.4 9.7 0.00 0.00 0.00 25 1022.8
20260503210329 12 290 6.4 11.3 0.00 0.00 0.00 25 1022.7
20260503205824 12 290 3.2 4.8 0.00 0.00 0.00 26 1022.9
20260503205321 12 296 1.6 6.4 0.00 0.00 0.00 25 1022.9
20260503204817 12 195 3.2 9.7 0.00 0.00 0.00 26 1023.1
20260503204315 11 264 1.6 9.7 0.00 0.00 0.00 28 1023.3
20260503203812 12 242 6.4 22.5 0.00 0.00 0.00 27 1023.3
20260503203309 11 13 1.6 4.8 0.00 0.00 0.00 28 1023.1
20260503202806 11 253 1.6 9.7 0.00 0.00 0.00 26 1023.3
20260503202304 11 273 3.2 6.4 0.00 0.00 0.00 28 1023.7
20260503201802 11 325 9.7 20.9 0.00 0.00 0.00 28 1023.5
20260503201259 11 346 11.3 14.5 0.00 0.00 0.00 28 1023.3
20260503200756 11 1 11.3 20.9 0.00 0.00 0.00 28 1023.5
20260503200251 11 308 11.3 22.5 0.00 0.00 0.00 28 1023.3
20260503195743 11 267 3.2 14.5 0.00 0.00 0.00 29 1023.3
20260503195240 11 272 1.6 9.7 0.00 0.00 0.00 26 1023.7
20260503194738 11 300 8.0 20.9 0.00 0.00 0.00 27 1023.5
20260503194233 12 259 9.7 17.7 0.00 0.00 0.00 26 1023.5
20260503193729 12 249 4.8 14.5 0.00 0.00 0.00 24 1023.9
20260503193226 11 242 3.2 4.8 0.00 0.00 0.00 26 1023.5
20260503192721 11 217 6.4 9.7 0.00 0.00 0.00 26 1023.7
20260503192217 11 271 4.8 11.3 0.00 0.00 0.00 26 1023.7
20260503191714 11 266 3.2 14.5 0.00 0.00 0.00 29 1023.7
20260503191211 11 291 4.8 6.4 0.00 0.00 0.00 29 1024.0
20260503190708 11 248 9.7 14.5 0.00 0.00 0.00 28 1024.0
20260503190204 11 311 3.2 6.4 0.00 0.00 0.00 27 1024.1
20260503185702 11 294 4.8 16.1 0.00 0.00 0.00 26 1024.4
20260503185156 11 233 8.0 16.1 0.00 0.00 0.00 26 1023.9
20260503184651 11 258 3.2 17.7 0.00 0.00 0.00 28 1024.3
20260503184148 11 294 4.8 9.7 0.00 0.00 0.00 29 1024.6
20260503183644 11 224 6.4 9.7 0.00 0.00 0.00 27 1024.4
20260503183142 11 220 9.7 11.3 0.00 0.00 0.00 28 1024.6
20260503182640 11 290 8.0 9.7 0.00 0.00 0.00 28 1024.8
20260503182139 11 278 4.8 9.7 0.00 0.00 0.00 28 1024.6
20260503181635 11 250 1.6 4.8 0.00 0.00 0.00 29 1024.6
20260503181132 11 244 3.2 4.8 0.00 0.00 0.00 29 1024.5
20260503180629 10 230 4.8 17.7 0.00 0.00 0.00 29 1024.6
20260503180127 11 264 1.6 6.4 0.00 0.00 0.00 30 1025.0
20260503175623 10 319 8.0 11.3 0.00 0.00 0.00 30 1025.0
20260503175120 10 288 4.8 9.7 0.00 0.00 0.00 31 1024.8
20260503174617 10 254 1.6 4.8 0.00 0.00 0.00 30 1025.0
20260503174114 10 257 3.2 14.5 0.00 0.00 0.00 31 1025.2
20260503173609 10 254 4.8 16.1 0.00 0.00 0.00 30 1025.2
20260503173106 10 266 3.2 12.9 0.00 0.00 0.00 30 1025.3
20260503172603 10 312 3.2 9.7 0.00 0.00 0.00 31 1025.2
20260503172100 10 242 4.8 14.5 0.00 0.00 0.00 29 1025.6
20260503171556 10 301 9.7 14.5 0.00 0.00 0.00 29 1025.4
20260503171054 10 256 3.2 12.9 0.00 0.00 0.00 30 1025.4
20260503170550 9 250 3.2 9.7 0.00 0.00 0.00 30 1025.4
20260503150943 7 311 4.8 22.5 0.00 0.00 0.00 38 1025.3
20260503150439 7 271 11.3 20.9 0.00 0.00 0.00 37 1025.8
20260503131332 6 257 3.2 4.8 0.00 0.00 0.00 37 1026.1
20260503130830 6 269 3.2 4.8 0.00 0.00 0.00 37 1025.8
20260503130327 6 248 0.0 9.7 0.00 0.00 0.00 37 1026.0
20260503110721 5 245 9.7 12.9 0.00 0.00 0.00 36 1025.3
20260503110218 6 228 4.8 11.3 0.00 0.00 0.00 36 1025.2
20260503100144 5 237 11.3 17.7 0.00 0.00 0.00 39 1025.3
20260503081533 6 248 1.6 14.5 0.00 0.00 0.00 41 1025.7
20260503081030 5 204 6.4 9.7 0.00 0.00 0.00 43 1026.0
20260503080526 5 250 11.3 14.5 0.00 0.00 0.00 42 1026.0
20260503072500 6 211 9.7 14.5 0.00 0.00 0.00 42 1026.6
20260503071957 6 231 6.4 9.7 0.00 0.00 0.00 43 1026.5
20260503071454 5 262 9.7 11.3 0.00 0.00 0.00 42 1026.6
20260503070949 5 234 3.2 9.7 0.00 0.00 0.00 43 1026.6
20260503070447 6 250 0.0 9.7 0.00 0.00 0.00 42 1026.8
20260503054900 5 227 3.2 4.8 0.00 0.00 0.00 31 1027.1
20260503054356 5 231 3.2 4.8 0.00 0.00 0.00 31 1026.9
20260503053854 5 243 4.8 6.4 0.00 0.00 0.00 31 1026.8
20260503053352 5 224 3.2 6.4 0.00 0.00 0.00 34 1026.9
20260503052848 5 217 3.2 4.8 0.00 0.00 0.00 31 1026.5
20260503052345 5 225 4.8 6.4 0.00 0.00 0.00 31 1026.9
20260503051841 5 218 3.2 6.4 0.00 0.00 0.00 31 1026.8
20260503051338 5 202 6.4 6.4 0.00 0.00 0.00 31 1026.5
20260503050835 5 193 4.8 6.4 0.00 0.00 0.00 31 1026.6
20260503050331 5 222 3.2 6.4 0.00 0.00 0.00 31 1026.5
20260503045829 5 204 4.8 6.4 0.00 0.00 0.00 30 1026.8
20260503045326 4 222 3.2 6.4 0.00 0.00 0.00 32 1026.6
20260503044822 4 215 3.2 4.8 0.00 0.00 0.00 36 1026.6
20260503044320 3 204 4.8 6.4 0.00 0.00 0.00 34 1026.8
20260503043817 2 232 1.6 4.8 0.00 0.00 0.00 38 1026.9
20260503043314 2 208 1.6 6.4 0.00 0.00 0.00 36 1026.5
20260503042809 2 213 4.8 4.8 0.00 0.00 0.00 39 1026.8
20260503042307 2 213 4.8 4.8 0.00 0.00 0.00 40 1026.8
20260503041802 2 218 3.2 4.8 0.00 0.00 0.00 44 1026.5
20260503041300 2 211 4.8 4.8 0.00 0.00 0.00 45 1026.8
20260503040758 2 204 4.8 4.8 0.00 0.00 0.00 45 1026.8
20260503040255 2 201 4.8 4.8 0.00 0.00 0.00 43 1026.6
20260503035752 2 203 4.8 4.8 0.00 0.00 0.00 47 1026.5
20260503035249 2 208 4.8 4.8 0.00 0.00 0.00 44 1026.5
20260503034746 2 216 3.2 4.8 0.00 0.00 0.00 45 1026.5
20260503034243 2 201 3.2 4.8 0.00 0.00 0.00 45 1026.5
20260503033741 2 202 4.8 4.8 0.00 0.00 0.00 39 1026.6
20260503033238 2 206 4.8 4.8 0.00 0.00 0.00 41 1026.6
20260503032736 3 205 4.8 6.4 0.00 0.00 0.00 40 1026.6
20260503032235 3 202 4.8 4.8 0.00 0.00 0.00 38 1026.5
20260503031731 3 208 4.8 4.8 0.00 0.00 0.00 36 1026.5
20260503031229 3 205 4.8 4.8 0.00 0.00 0.00 38 1026.5
20260503030725 3 206 6.4 6.4 0.00 0.00 0.00 35 1026.8
20260503030222 3 201 4.8 4.8 0.00 0.00 0.00 40 1026.8
20260503025719 3 204 4.8 4.8 0.00 0.00 0.00 38 1026.6
20260503025216 3 202 4.8 4.8 0.00 0.00 0.00 34 1026.5
20260503024713 4 207 4.8 4.8 0.00 0.00 0.00 37 1026.8
20260503024210 4 211 4.8 4.8 0.00 0.00 0.00 32 1026.5
20260503023707 5 210 4.8 4.8 0.00 0.00 0.00 39 1026.8
20260503023204 5 222 3.2 4.8 0.00 0.00 0.00 34 1026.8
20260503022700 5 219 4.8 4.8 0.00 0.00 0.00 35 1026.6
20260503022159 5 200 3.2 4.8 0.00 0.00 0.00 35 1026.5